| time (UTC) | temp C | wind direction | speed KPH | gust KPH | rain 1hr cm | rain 24hr cm | rain mn cm | humidity % | barometer mb |
| 20260904231513 | 29 | 302 | 12.9 | 22.5 | 0.03 | 0.56 | 0.43 | 61 | 1008.0 |
| 20260904230011 | 30 | 324 | 17.7 | 37.0 | 0.03 | 0.66 | 0.43 | 60 | 1008.0 |
| 20260904224559 | 32 | 315 | 24.1 | 32.2 | 0.03 | 0.66 | 0.43 | 56 | 1007.9 |
| 20260904223058 | 32 | 172 | 0.0 | 12.9 | 0.03 | 0.66 | 0.43 | 63 | 1007.8 |
| 20260904221551 | 33 | 145 | 9.7 | 20.9 | 0.00 | 0.64 | 0.41 | 62 | 1007.8 |
| 20260904220107 | 33 | 166 | 11.3 | 24.1 | 0.00 | 0.64 | 0.41 | 59 | 1007.2 |
| 20260904214540 | 33 | 186 | 14.5 | 24.1 | 0.03 | 0.64 | 0.41 | 60 | 1007.3 |
| 20260904213006 | 33 | 154 | 17.7 | 29.0 | 0.03 | 0.64 | 0.41 | 58 | 1007.1 |
| 20260904211501 | 33 | 360 | 12.9 | 22.5 | 0.03 | 0.64 | 0.41 | 60 | 1006.8 |
| 20260904210039 | 33 | 217 | 12.9 | 25.7 | 0.03 | 0.64 | 0.41 | 61 | 1006.9 |
| 20260904204523 | 33 | 212 | 16.1 | 29.0 | 0.00 | 0.61 | 0.38 | 61 | 1006.9 |
| 20260904203024 | 33 | 223 | 17.7 | 25.7 | 0.00 | 0.61 | 0.38 | 61 | 1007.0 |
| 20260904201507 | 33 | 187 | 14.5 | 25.7 | 0.03 | 0.61 | 0.38 | 61 | 1007.2 |
| 20260904200006 | 34 | 207 | 8.0 | 24.1 | 0.03 | 0.61 | 0.38 | 60 | 1007.3 |
| 20260904194613 | 34 | 175 | 9.7 | 24.1 | 0.03 | 0.61 | 0.38 | 62 | 1007.5 |
| 20260904193058 | 34 | 162 | 12.9 | 24.1 | 0.03 | 0.61 | 0.38 | 63 | 1007.6 |
| 20260904191549 | 33 | 175 | 12.9 | 22.5 | 0.00 | 0.61 | 0.36 | 62 | 1008.0 |
| 20260904190048 | 33 | 160 | 14.5 | 20.9 | 0.03 | 0.61 | 0.36 | 62 | 1008.3 |
| 20260904184552 | 33 | 202 | 11.3 | 20.9 | 0.03 | 0.61 | 0.36 | 63 | 1008.6 |
| 20260904183048 | 33 | 360 | 12.9 | 20.9 | 0.03 | 0.61 | 0.36 | 62 | 1008.9 |
| 20260904181538 | 33 | 159 | 9.7 | 19.3 | 0.03 | 0.61 | 0.36 | 62 | 1009.0 |
| 20260904180036 | 33 | 177 | 9.7 | 14.5 | 0.00 | 0.58 | 0.33 | 62 | 1009.2 |
| 20260904174536 | 32 | 169 | 6.4 | 20.9 | 0.00 | 0.58 | 0.33 | 64 | 1009.3 |
| 20260904173100 | 32 | 239 | 12.9 | 19.3 | 0.03 | 0.58 | 0.33 | 67 | 1009.4 |
| 20260904171603 | 32 | 360 | 11.3 | 20.9 | 0.03 | 0.58 | 0.33 | 68 | 1009.5 |
| 20260904170057 | 32 | 146 | 9.7 | 16.1 | 0.03 | 0.58 | 0.33 | 69 | 1009.5 |
| 20260904164557 | 32 | 208 | 6.4 | 17.7 | 0.05 | 0.58 | 0.33 | 67 | 1009.4 |
| 20260904163055 | 32 | 207 | 8.0 | 16.1 | 0.03 | 0.56 | 0.33 | 61 | 1009.6 |
| 20260904161606 | 32 | 177 | 8.0 | 14.5 | 0.03 | 0.56 | 0.33 | 64 | 1009.7 |
| 20260904160018 | 31 | 180 | 6.4 | 14.5 | 0.03 | 0.56 | 0.33 | 67 | 1009.9 |
| 20260904154521 | 31 | 269 | 0.0 | 0.0 | 0.00 | 0.53 | 0.30 | 67 | 1009.9 |
| 20260904153008 | 30 | 288 | 0.0 | 0.0 | 0.03 | 0.53 | 0.30 | 71 | 1009.9 |
| 20260904151504 | 30 | 236 | 0.0 | 0.0 | 0.03 | 0.53 | 0.30 | 73 | 1009.9 |
| 20260904150104 | 28 | 272 | 0.0 | 0.0 | 0.03 | 0.53 | 0.30 | 79 | 1009.8 |
| 20260904144605 | 27 | 241 | 0.0 | 0.0 | 0.05 | 0.53 | 0.30 | 87 | 1009.8 |
| 20260904143052 | 26 | 165 | 0.0 | 0.0 | 0.03 | 0.51 | 0.28 | 93 | 1009.8 |
| 20260904141545 | 26 | 313 | 0.0 | 0.0 | 0.03 | 0.51 | 0.28 | 96 | 1009.7 |
| 20260904140054 | 25 | 313 | 0.0 | 0.0 | 0.03 | 0.51 | 0.28 | 96 | 1009.7 |
| 20260904134548 | 24 | 314 | 0.0 | 0.0 | 0.00 | 0.51 | 0.25 | 96 | 1009.6 |
| 20260904133013 | 24 | 321 | 0.0 | 0.0 | 0.00 | 0.51 | 0.25 | 96 | 1009.6 |
| 20260904131510 | -17 | 0.0 | 0.0 | 0.00 | 0.51 | 0.25 | 1009.5 | ||
| 20260904130003 | -17 | 0.0 | 0.0 | 0.00 | 0.51 | 0.25 | 1009.4 | ||
| 20260904124609 | -17 | 0.0 | 0.0 | 0.00 | 0.51 | 0.25 | 1009.3 | ||
| 20260904123054 | -17 | 0.0 | 0.0 | 0.00 | 0.51 | 0.25 | 1009.2 | ||
| 20260904121554 | -17 | 0.0 | 0.0 | 0.03 | 0.51 | 0.25 | 1009.0 | ||
| 20260904114547 | -17 | 0.0 | 0.0 | 0.03 | 0.51 | 0.25 | 1008.7 | ||
| 20260904113046 | 23 | 293 | 0.0 | 0.0 | 0.03 | 0.51 | 0.25 | 95 | 1008.6 |
| 20260904111542 | 23 | 293 | 0.0 | 0.0 | 0.00 | 0.48 | 0.23 | 95 | 1008.4 |
| 20260904110043 | 23 | 293 | 0.0 | 0.0 | 0.03 | 0.48 | 0.23 | 95 | 1008.2 |
| 20260904104539 | 23 | 293 | 0.0 | 0.0 | 0.03 | 0.48 | 0.23 | 95 | 1007.9 |
| 20260904103040 | 23 | 250 | 0.0 | 0.0 | 0.03 | 0.48 | 0.23 | 95 | 1007.8 |
| 20260904101535 | 23 | 246 | 0.0 | 0.0 | 0.05 | 0.48 | 0.23 | 95 | 1007.9 |
| 20260904100032 | 23 | 310 | 0.0 | 9.7 | 0.03 | 0.46 | 0.23 | 95 | 1007.9 |
| 20260904094539 | 24 | 306 | 8.0 | 11.3 | 0.03 | 0.46 | 0.23 | 95 | 1008.1 |
| 20260904093028 | 24 | 327 | 9.7 | 14.5 | 0.05 | 0.46 | 0.23 | 95 | 1008.3 |
| 20260904091533 | 24 | 340 | 14.5 | 19.3 | 0.03 | 0.43 | 0.20 | 95 | 1008.6 |
| 20260904090021 | 24 | 325 | 11.3 | 12.9 | 0.05 | 0.43 | 0.20 | 94 | 1009.0 |
| 20260904084551 | 24 | 284 | 0.0 | 0.0 | 0.05 | 0.43 | 0.20 | 94 | 1009.5 |
| 20260904083049 | 24 | 360 | 0.0 | 0.0 | 0.05 | 0.43 | 0.18 | 93 | 1010.0 |
| 20260904081545 | 24 | 360 | 0.0 | 3.2 | 0.03 | 0.41 | 0.15 | 93 | 1010.5 |
| 20260904080054 | 23 | 5 | 8.0 | 16.1 | 0.03 | 0.41 | 0.15 | 91 | 1010.4 |
| 20260904074542 | 25 | 123 | 9.7 | 22.5 | 0.03 | 0.41 | 0.15 | 91 | 1010.6 |
| 20260904073041 | 25 | 327 | 1.6 | 6.4 | 0.00 | 0.38 | 0.15 | 91 | 1010.6 |
| 20260904071538 | 25 | 293 | 0.0 | 6.4 | 0.00 | 0.38 | 0.15 | 91 | 1010.7 |
| 20260904070044 | 25 | 294 | 0.0 | 0.0 | 0.00 | 0.38 | 0.15 | 91 | 1010.8 |
| 20260904064541 | 25 | 351 | 0.0 | 0.0 | 0.00 | 0.38 | 0.15 | 92 | 1010.9 |
| 20260904063041 | 25 | 351 | 0.0 | 0.0 | 0.00 | 0.38 | 0.15 | 92 | 1010.9 |
| 20260904061538 | 25 | 5 | 0.0 | 0.0 | 0.00 | 0.38 | 0.15 | 92 | 1011.0 |
| 20260904060056 | 25 | 144 | 0.0 | 0.0 | 0.00 | 0.38 | 0.15 | 92 | 1011.0 |
| 20260904054540 | 25 | 141 | 0.0 | 0.0 | 0.00 | 0.38 | 0.15 | 92 | 1010.8 |
| 20260904053033 | 25 | 27 | 0.0 | 0.0 | 0.00 | 0.38 | 0.15 | 91 | 1010.8 |
| 20260904051558 | 25 | 26 | 0.0 | 0.0 | 0.00 | 0.38 | 0.15 | 91 | 1011.0 |
| 20260904050058 | 25 | 340 | 0.0 | 0.0 | 0.03 | 0.38 | 0.15 | 91 | 1010.8 |
| 20260904044527 | 25 | 331 | 6.4 | 9.7 | 0.03 | 0.38 | 0.15 | 92 | 1010.7 |
| 20260904043020 | 25 | 320 | 8.0 | 9.7 | 0.03 | 0.38 | 0.15 | 91 | 1010.7 |
| 20260904041518 | 25 | 186 | 0.0 | 6.4 | 0.03 | 0.38 | 0.15 | 92 | 1010.5 |
| 20260904040024 | 25 | 53 | 0.0 | 3.2 | 0.03 | 0.36 | 0.13 | 92 | 1010.4 |
| 20260904034510 | 25 | 312 | 8.0 | 9.7 | 0.05 | 0.36 | 0.13 | 93 | 1010.3 |
| 20260904033010 | 25 | 311 | 1.6 | 8.0 | 0.05 | 0.36 | 0.13 | 93 | 1010.5 |
| 20260904031538 | 25 | 329 | 0.0 | 0.0 | 0.05 | 0.36 | 0.13 | 93 | 1010.6 |
| 20260904030038 | 25 | 306 | 0.0 | 11.3 | 0.05 | 0.33 | 0.10 | 93 | 1010.3 |
| 20260904024505 | 25 | 272 | 0.0 | 8.0 | 0.05 | 0.33 | 0.08 | 93 | 1010.1 |
| 20260904023001 | 25 | 323 | 3.2 | 9.7 | 0.08 | 0.33 | 0.08 | 93 | 1009.8 |
| 20260904021559 | 25 | 333 | 0.0 | 0.0 | 0.05 | 0.30 | 0.05 | 93 | 1009.8 |
| 20260904020055 | 25 | 306 | 6.4 | 11.3 | 0.05 | 0.36 | 0.05 | 93 | 1009.6 |
| 20260904014555 | 25 | 172 | 0.0 | 1.6 | 0.08 | 0.36 | 0.05 | 92 | 1009.3 |
| 20260904013113 | 25 | 208 | 0.0 | 8.0 | 0.05 | 0.33 | 0.00 | 92 | 1009.2 |
| 20260904011520 | 26 | 169 | 0.0 | 6.4 | 0.08 | 0.33 | 0.00 | 92 | 1009.4 |
| 20260904010018 | 25 | 300 | 0.0 | 9.7 | 0.05 | 0.38 | 0.30 | 92 | 1009.8 |
| 20260904004522 | 25 | 234 | 0.0 | 14.5 | 0.05 | 0.36 | 0.28 | 92 | 1010.0 |
| 20260904003023 | 25 | 321 | 12.9 | 19.3 | 0.05 | 0.33 | 0.25 | 92 | 1010.0 |
| 20260904001514 | 26 | 330 | 16.1 | 19.3 | 0.05 | 0.33 | 0.23 | 93 | 1009.7 |
| 20260904000014 | 26 | 329 | 12.9 | 19.3 | 0.08 | 0.33 | 0.23 | 93 | 1009.6 |
| 20260903234543 | 26 | 321 | 12.9 | 17.7 | 0.10 | 0.30 | 0.23 | 92 | 1009.2 |
| 20260903233045 | 26 | 318 | 8.0 | 17.7 | 0.13 | 0.28 | 0.20 | 91 | 1009.3 |